Defiance, OH

7:55 PM EDT on October 21, 2017 (GMT -0400)
Defiance Memorial

Weather History for KDFI - June, 2012

Change the Weather History Date:

Saturday, June 23, 2012

  Actual Average Record
Temperature  
Mean Temperature 70 °F -  
Max Temperature 86 °F 81 °F 98 °F (1988)
Min Temperature 57 °F 57 °F 44 °F (1992)
Cooling Degree Days 6    
Growing Degree Days 20 (Base 50)    
Moisture  
Dew Point 54 °F    
Average Humidity 54    
Maximum Humidity 90    
Minimum Humidity 29    
Precipitation  
Precipitation 0.00 in - - ()
Sea Level Pressure  
Sea Level Pressure 30.02 in    
Wind  
Wind Speed 2 mph (ENE)    
Max Wind Speed 7 mph    
Max Gust Speed -    
Visibility 10 miles    
Events      
Averages and records for this station are not official NWS values.
T = Trace of Precipitation, MM = Missing Value Source: NWS Daily Summary

Daily Weather History Graph

Daily Weather History Graph

Search for Another Location

Airport or City:

Trip Planner

Search our weather history database for the weather conditions in past years. The results will help you decide how hot, cold, wet, or windy it might be!

Date:

Astronomy

Jun. 23, 2012 Rise Set
Actual Time 6:05 AM EDT 9:14 PM EDT
Civil Twilight 5:31 AM EDT 9:48 PM EDT
Nautical Twilight 4:47 AM EDT 10:32 PM EDT
Astronomical Twilight 3:55 AM EDT 11:24 PM EDT
Moon 10:08 AM EDT (6/23) 11:39 PM EDT (6/23)
Length of Visible Light 16h 17m
Length of Day
15h 09m
Waxing Crescent, 16% of the Moon is Illuminated
Jun 23
Waxing Crescent
Jun 26
First Quarter
Jul 3
Full
Jul 10
Last Quarter
Jul 19
New

Hourly Weather History & Observations

Time (EDT) Temp. Heat Index Dew Point Humidity Pressure Visibility Wind Dir Wind Speed Gust Speed Precip Events Conditions
12:53 AM 64.9 °F - 53.1 °F 65% 29.99 in 10.0 mi Calm Calm - N/A   Clear
1:53 AM 62.1 °F - 55.0 °F 78% 29.99 in 10.0 mi Calm Calm - N/A   Clear
3:53 AM 57.9 °F - 55.0 °F 90% 30.00 in 10.0 mi Calm Calm - N/A   Clear
4:53 AM 57.9 °F - 55.0 °F 90% 30.01 in 10.0 mi North - - N/A   Clear
5:53 AM 57.9 °F - 55.0 °F 90% 30.02 in 10.0 mi Calm Calm - N/A   Clear
6:53 AM 60.1 °F - 57.0 °F 90% 30.03 in 10.0 mi Calm Calm - N/A   Clear
7:53 AM 64.9 °F - 57.0 °F 75% 30.03 in 10.0 mi NE 3.5 mph - N/A   Clear
8:53 AM 70.0 °F - 57.9 °F 65% 30.04 in 10.0 mi ENE 4.6 mph - N/A   Clear
9:53 AM 73.9 °F - 55.9 °F 53% 30.05 in 10.0 mi Variable 5.8 mph - N/A   Clear
10:53 AM 77.0 °F - 55.0 °F 47% 30.04 in 10.0 mi Variable 4.6 mph - N/A   Clear
11:53 AM 81.0 °F 80.7 °F 55.0 °F 41% 30.04 in 10.0 mi East 5.8 mph - N/A   Clear
12:53 PM 82.0 °F - 52.0 °F 35% 30.04 in 10.0 mi Calm Calm - N/A   Scattered Clouds
1:53 PM 84.0 °F - 50.0 °F 31% 30.04 in 10.0 mi NNW 6.9 mph - N/A   Scattered Clouds
2:53 PM 84.9 °F - 50.0 °F 30% 30.02 in 10.0 mi NNE 6.9 mph - N/A   Partly Cloudy
3:53 PM 82.9 °F - 50.0 °F 32% 30.02 in 10.0 mi Calm Calm - N/A   Mostly Cloudy
4:53 PM 82.9 °F - 50.0 °F 32% 30.01 in 10.0 mi Calm Calm - N/A   Clear
5:53 PM 84.9 °F - 48.9 °F 29% 30.01 in 10.0 mi Calm Calm - N/A   Partly Cloudy
6:53 PM 82.9 °F - 51.1 °F 33% 29.99 in 10.0 mi Calm Calm - N/A   Clear
7:53 PM 84.0 °F - 48.9 °F 29% 29.99 in 10.0 mi Calm Calm - N/A   Clear
8:53 PM 77.0 °F - 57.9 °F 52% 30.00 in 10.0 mi Calm Calm - N/A   Clear
9:53 PM 78.1 °F - 55.0 °F 45% 30.01 in 10.0 mi ESE 3.5 mph - N/A   Clear
10:53 PM 73.0 °F - 59.0 °F 61% 30.03 in 10.0 mi East 5.8 mph - N/A   Clear
11:53 PM 73.9 °F - 57.9 °F 57% 30.03 in 10.0 mi SE 3.5 mph - N/A   Clear